Time,TemperatureF,DewpointF,PressureIn,WindDirection,WindDirectionDegrees,WindSpeedMPH,WindSpeedGustMPH,Humidity,HourlyPrecipIn,Conditions,Clouds,dailyrainin,SoftwareType,DateUTC
2013-06-06 00:01:00,57.5,53.3,29.94,SSE,149,0.0,0.0,86,0.00,,,0.00,WeatherCatV1.15B25,2013-06-06 04:01:00,
2013-06-06 00:02:00,57.4,53.2,29.94,SSE,149,0.0,0.0,86,0.00,,,0.00,WeatherCatV1.15B25,2013-06-06 04:02:00,
2013-06-06 00:03:00,57.4,53.2,29.94,SSE,149,0.0,0.0,86,0.00,,,0.00,WeatherCatV1.15B25,2013-06-06 04:03:00,
2013-06-06 00:06:00,57.2,53.0,29.94,SSE,150,0.0,0.0,86,0.00,,,0.00,WeatherCatV1.15B25,2013-06-06 04:06:00,
2013-06-06 00:11:00,56.8,53.0,29.94,SSE,149,0.0,0.0,87,0.00,,,0.00,WeatherCatV1.15B25,2013-06-06 04:11:00,
2013-06-06 00:16:00,56.5,52.7,29.94,SSE,150,0.0,0.0,87,0.00,,,0.00,WeatherCatV1.15B25,2013-06-06 04:16:00,
2013-06-06 00:21:00,56.2,52.4,29.93,SSE,150,0.0,0.0,87,0.00,,,0.00,WeatherCatV1.15B25,2013-06-06 04:21:00,
2013-06-06 00:26:00,55.8,52.0,29.93,SSE,150,0.0,0.0,87,0.00,,,0.00,WeatherCatV1.15B25,2013-06-06 04:26:00,
2013-06-06 00:31:00,55.6,52.1,29.93,SSE,150,0.0,0.0,88,0.00,,,0.00,WeatherCatV1.15B25,2013-06-06 04:31:00,
2013-06-06 00:36:00,55.5,52.0,29.93,SSE,150,0.0,0.0,88,0.00,,,0.00,WeatherCatV1.15B25,2013-06-06 04:36:00,
2013-06-06 00:41:00,55.3,51.8,29.93,SSE,149,0.0,0.0,88,0.00,,,0.00,WeatherCatV1.15B25,2013-06-06 04:41:00,
2013-06-06 00:46:00,55.0,51.5,29.93,SSE,150,0.0,0.0,88,0.00,,,0.00,WeatherCatV1.15B25,2013-06-06 04:46:00,
2013-06-06 00:51:00,54.7,51.2,29.93,SSE,150,0.0,0.0,88,0.00,,,0.00,WeatherCatV1.15B25,2013-06-06 04:51:00,
2013-06-06 00:56:00,54.5,51.3,29.93,SSE,150,0.0,0.0,89,0.00,,,0.00,WeatherCatV1.15B25,2013-06-06 04:56:00,
2013-06-06 01:01:00,54.4,51.2,29.93,SSE,149,0.0,0.0,89,0.00,,,0.00,WeatherCatV1.15B25,2013-06-06 05:01:00,
2013-06-06 01:07:00,54.1,51.2,29.93,SSE,150,0.0,0.0,90,0.00,,,0.00,WeatherCatV1.15B25,2013-06-06 05:07:00,
2013-06-06 01:12:00,54.1,51.2,29.93,SSE,150,0.0,0.0,90,0.00,,,0.00,WeatherCatV1.15B25,2013-06-06 05:12:00,
2013-06-06 01:17:00,54.1,51.2,29.92,SSE,149,0.0,0.0,90,0.00,,,0.00,WeatherCatV1.15B25,2013-06-06 05:17:00,
2013-06-06 01:22:00,54.2,51.6,29.92,SSE,149,0.0,0.0,91,0.00,,,0.00,WeatherCatV1.15B25,2013-06-06 05:22:00,
2013-06-06 01:27:00,54.1,51.5,29.92,SSE,149,0.0,0.0,91,0.00,,,0.00,WeatherCatV1.15B25,2013-06-06 05:27:00,
2013-06-06 01:32:00,54.0,51.4,29.92,SSE,150,0.0,0.0,91,0.00,,,0.00,WeatherCatV1.15B25,2013-06-06 05:32:00,
2013-06-06 01:37:00,53.9,51.3,29.92,SSE,149,0.0,0.0,91,0.00,,,0.00,WeatherCatV1.15B25,2013-06-06 05:37:00,
2013-06-06 01:42:00,53.7,51.1,29.92,SSE,149,0.0,0.0,91,0.00,,,0.00,WeatherCatV1.15B25,2013-06-06 05:42:00,
2013-06-06 01:47:00,53.6,51.0,29.92,SSE,149,0.0,0.0,91,0.00,,,0.00,WeatherCatV1.15B25,2013-06-06 05:47:00,
2013-06-06 01:52:00,53.7,51.1,29.92,SSE,150,0.0,0.0,91,0.00,,,0.00,WeatherCatV1.15B25,2013-06-06 05:52:00,
2013-06-06 01:57:00,53.9,51.6,29.91,SSE,149,0.0,0.0,92,0.00,,,0.00,WeatherCatV1.15B25,2013-06-06 05:57:00,
2013-06-06 02:02:00,54.1,51.8,29.91,SSE,150,0.0,0.0,92,0.00,,,0.00,WeatherCatV1.15B25,2013-06-06 06:02:00,
2013-06-06 02:07:00,54.3,52.0,29.91,SSE,150,0.0,0.0,92,0.00,,,0.00,WeatherCatV1.15B25,2013-06-06 06:07:00,
2013-06-06 02:12:00,54.4,52.1,29.91,SSE,150,0.0,0.0,92,0.00,,,0.00,WeatherCatV1.15B25,2013-06-06 06:12:00,
2013-06-06 02:17:00,54.5,52.2,29.91,SSE,150,0.0,0.0,92,0.00,,,0.00,WeatherCatV1.15B25,2013-06-06 06:17:00,
2013-06-06 02:22:00,54.7,52.4,29.91,SSE,150,0.0,0.0,92,0.00,,,0.00,WeatherCatV1.15B25,2013-06-06 06:22:00,
2013-06-06 02:27:00,54.9,52.6,29.90,SW,215,0.0,0.0,92,0.00,,,0.00,WeatherCatV1.15B25,2013-06-06 06:27:00,
2013-06-06 02:32:00,55.1,52.8,29.90,SW,215,0.0,0.0,92,0.00,,,0.00,WeatherCatV1.15B25,2013-06-06 06:32:00,
2013-06-06 02:37:00,55.3,53.0,29.90,SE,146,0.0,1.0,92,0.00,,,0.00,WeatherCatV1.15B25,2013-06-06 06:37:00,
2013-06-06 02:42:00,55.4,53.1,29.90,SE,146,0.0,0.0,92,0.00,,,0.00,WeatherCatV1.15B25,2013-06-06 06:42:00,
2013-06-06 02:47:00,55.5,53.2,29.90,SE,146,0.0,0.0,92,0.00,,,0.00,WeatherCatV1.15B25,2013-06-06 06:47:00,
2013-06-06 02:52:00,55.6,53.3,29.89,SE,146,0.0,0.0,92,0.00,,,0.00,WeatherCatV1.15B25,2013-06-06 06:52:00,
2013-06-06 02:57:00,55.8,53.5,29.89,SE,146,0.0,0.0,92,0.00,,,0.00,WeatherCatV1.15B25,2013-06-06 06:57:00,
2013-06-06 03:02:00,55.9,53.6,29.90,SSE,147,0.0,0.0,92,0.00,,,0.00,WeatherCatV1.15B25,2013-06-06 07:02:00,
2013-06-06 03:07:00,56.1,53.8,29.90,SSE,147,0.0,0.0,92,0.00,,,0.00,WeatherCatV1.15B25,2013-06-06 07:07:00,
2013-06-06 03:12:00,56.2,53.9,29.90,SSE,163,0.0,0.0,92,0.00,,,0.00,WeatherCatV1.15B25,2013-06-06 07:12:00,
2013-06-06 03:17:00,57.4,55.7,29.90,SSE,158,2.0,3.0,94,0.00,,,0.00,WeatherCatV1.15B25,2013-06-06 07:17:00,
2013-06-06 03:22:00,59.4,56.8,29.90,SSE,156,0.0,3.0,91,0.00,,,0.00,WeatherCatV1.15B25,2013-06-06 07:22:00,
2013-06-06 03:27:00,61.1,57.2,29.90,SSE,159,1.0,2.0,87,0.00,,,0.00,WeatherCatV1.15B25,2013-06-06 07:27:00,
2013-06-06 03:32:00,61.7,57.1,29.90,SSE,158,2.0,3.0,85,0.00,,,0.00,WeatherCatV1.15B25,2013-06-06 07:32:00,
2013-06-06 03:37:00,62.4,57.5,29.89,SSE,159,1.0,2.0,84,0.00,,,0.00,WeatherCatV1.15B25,2013-06-06 07:37:00,
2013-06-06 03:42:00,62.8,57.9,29.89,SSW,197,1.0,1.0,84,0.00,,,0.00,WeatherCatV1.15B25,2013-06-06 07:42:00,
2013-06-06 03:47:00,63.0,57.8,29.89,SSE,153,0.0,1.0,83,0.00,,,0.00,WeatherCatV1.15B25,2013-06-06 07:47:00,
2013-06-06 03:52:00,63.1,58.2,29.89,SSE,150,0.0,0.0,84,0.00,,,0.00,WeatherCatV1.15B25,2013-06-06 07:52:00,
2013-06-06 03:57:00,62.9,58.0,29.89,SSE,150,0.0,0.0,84,0.00,,,0.00,WeatherCatV1.15B25,2013-06-06 07:57:00,
2013-06-06 04:02:00,62.6,57.7,29.89,SSE,150,0.0,0.0,84,0.00,,,0.00,WeatherCatV1.15B25,2013-06-06 08:02:00,
2013-06-06 04:07:00,62.4,57.8,29.89,SSE,149,0.0,0.0,85,0.00,,,0.00,WeatherCatV1.15B25,2013-06-06 08:07:00,
2013-06-06 04:12:00,62.2,57.6,29.89,SSE,149,0.0,0.0,85,0.00,,,0.00,WeatherCatV1.15B25,2013-06-06 08:12:00,
2013-06-06 04:17:00,61.8,57.2,29.89,SSE,149,0.0,0.0,85,0.00,,,0.00,WeatherCatV1.15B25,2013-06-06 08:17:00,
2013-06-06 04:22:00,61.5,56.9,29.89,SSE,149,0.0,0.0,85,0.00,,,0.00,WeatherCatV1.15B25,2013-06-06 08:22:00,
2013-06-06 04:27:00,61.4,57.2,29.89,SSE,149,0.0,0.0,86,0.00,,,0.00,WeatherCatV1.15B25,2013-06-06 08:27:00,
2013-06-06 04:32:00,61.5,57.3,29.89,SSE,149,0.0,0.0,86,0.00,,,0.00,WeatherCatV1.15B25,2013-06-06 08:32:00,
2013-06-06 04:37:00,61.5,57.3,29.89,SSE,150,0.0,0.0,86,0.00,,,0.00,WeatherCatV1.15B25,2013-06-06 08:37:00,
2013-06-06 04:42:00,61.4,57.2,29.89,SSE,149,0.0,0.0,86,0.00,,,0.00,WeatherCatV1.15B25,2013-06-06 08:42:00,
2013-06-06 04:47:00,61.3,57.4,29.89,SSE,150,0.0,0.0,87,0.00,,,0.00,WeatherCatV1.15B25,2013-06-06 08:47:00,
2013-06-06 04:52:00,61.3,57.7,29.89,SSE,148,0.0,0.0,88,0.63,,,0.07,WeatherCatV1.15B25,2013-06-06 08:52:00,
2013-06-06 04:57:00,61.1,57.8,29.89,SSE,152,0.0,0.0,89,0.11,,,0.07,WeatherCatV1.15B25,2013-06-06 08:57:00,
2013-06-06 05:02:00,60.8,57.5,29.89,SSE,151,0.0,0.0,89,0.06,,,0.07,WeatherCatV1.15B25,2013-06-06 09:02:00,
2013-06-06 05:07:00,60.4,57.1,29.89,SSE,151,0.0,0.0,89,0.04,,,0.07,WeatherCatV1.15B25,2013-06-06 09:07:00,
2013-06-06 05:12:00,60.1,57.2,29.89,SSE,150,0.0,0.0,90,0.00,,,0.07,WeatherCatV1.15B25,2013-06-06 09:12:00,
2013-06-06 05:17:00,59.8,56.9,29.88,SSE,150,0.0,0.0,90,0.00,,,0.07,WeatherCatV1.15B25,2013-06-06 09:17:00,
2013-06-06 05:22:00,59.7,57.1,29.88,SSE,152,0.0,0.0,91,0.00,,,0.07,WeatherCatV1.15B25,2013-06-06 09:22:00,
2013-06-06 05:27:00,59.8,57.2,29.88,SSW,197,0.0,0.0,91,0.00,,,0.08,WeatherCatV1.15B25,2013-06-06 09:27:00,
2013-06-06 05:32:00,59.9,57.6,29.88,SSW,197,0.0,0.0,92,0.00,,,0.08,WeatherCatV1.15B25,2013-06-06 09:32:00,
2013-06-06 05:37:00,59.9,57.6,29.88,SSW,197,0.0,0.0,92,0.00,,,0.08,WeatherCatV1.15B25,2013-06-06 09:37:00,
2013-06-06 05:42:00,60.1,57.8,29.88,SSW,198,0.0,0.0,92,0.00,,,0.08,WeatherCatV1.15B25,2013-06-06 09:42:00,
2013-06-06 05:47:00,60.2,58.2,29.88,SSW,197,0.0,0.0,93,0.00,,,0.09,WeatherCatV1.15B25,2013-06-06 09:47:00,
2013-06-06 05:52:00,60.3,58.0,29.87,SSW,197,0.0,0.0,92,0.00,,,0.09,WeatherCatV1.15B25,2013-06-06 09:52:00,
2013-06-06 05:57:00,60.2,57.9,29.88,SSW,197,0.0,0.0,92,0.00,,,0.09,WeatherCatV1.15B25,2013-06-06 09:57:00,
2013-06-06 06:02:00,60.2,58.2,29.88,SSW,197,0.0,0.0,93,0.00,,,0.09,WeatherCatV1.15B25,2013-06-06 10:02:00,
2013-06-06 06:07:00,60.3,58.3,29.88,SSW,197,0.0,0.0,93,0.00,,,0.09,WeatherCatV1.15B25,2013-06-06 10:07:00,
2013-06-06 06:12:00,60.3,58.3,29.88,SSE,153,0.0,1.0,93,0.00,,,0.09,WeatherCatV1.15B25,2013-06-06 10:12:00,
2013-06-06 06:17:00,60.2,58.2,29.88,SSE,153,0.0,0.0,93,0.00,,,0.09,WeatherCatV1.15B25,2013-06-06 10:17:00,
2013-06-06 06:22:00,60.1,58.1,29.88,SSE,153,0.0,0.0,93,0.00,,,0.09,WeatherCatV1.15B25,2013-06-06 10:22:00,
2013-06-06 06:27:00,60.2,58.2,29.88,SSE,153,0.0,0.0,93,0.00,,,0.09,WeatherCatV1.15B25,2013-06-06 10:27:00,
2013-06-06 06:32:00,60.2,58.2,29.88,SSE,153,0.0,0.0,93,0.00,,,0.09,WeatherCatV1.15B25,2013-06-06 10:32:00,
2013-06-06 06:37:00,60.3,58.3,29.88,SSE,153,0.0,0.0,93,0.00,,,0.09,WeatherCatV1.15B25,2013-06-06 10:37:00,
2013-06-06 06:42:00,60.3,58.3,29.88,SE,138,0.0,0.0,93,0.00,,,0.09,WeatherCatV1.15B25,2013-06-06 10:42:00,
2013-06-06 06:47:00,60.3,58.3,29.87,SE,138,0.0,0.0,93,0.00,,,0.09,WeatherCatV1.15B25,2013-06-06 10:47:00,
2013-06-06 06:52:00,60.4,58.4,29.88,SE,141,0.0,1.0,93,0.00,,,0.09,WeatherCatV1.15B25,2013-06-06 10:52:00,
2013-06-06 06:57:00,60.5,58.5,29.87,SE,141,0.0,0.0,93,0.00,,,0.09,WeatherCatV1.15B25,2013-06-06 10:57:00,
2013-06-06 07:02:00,60.5,58.5,29.87,SE,141,0.0,0.0,93,0.00,,,0.10,WeatherCatV1.15B25,2013-06-06 11:02:00,
2013-06-06 07:07:00,60.5,58.5,29.87,SE,141,0.0,0.0,93,0.00,,,0.10,WeatherCatV1.15B25,2013-06-06 11:07:00,
2013-06-06 07:12:00,60.5,58.5,29.87,SE,141,0.0,0.0,93,0.00,,,0.10,WeatherCatV1.15B25,2013-06-06 11:12:00,
2013-06-06 07:17:00,60.5,58.5,29.87,SE,141,0.0,0.0,93,0.00,,,0.10,WeatherCatV1.15B25,2013-06-06 11:17:00,
2013-06-06 07:22:00,60.5,58.8,29.87,SE,141,0.0,0.0,94,0.00,,,0.10,WeatherCatV1.15B25,2013-06-06 11:22:00,
2013-06-06 07:27:00,60.5,58.5,29.86,SE,139,0.0,1.0,93,0.00,,,0.11,WeatherCatV1.15B25,2013-06-06 11:27:00,
2013-06-06 07:32:00,60.6,58.9,29.86,ESE,108,0.0,1.0,94,0.00,,,0.11,WeatherCatV1.15B25,2013-06-06 11:32:00,
2013-06-06 07:37:00,60.6,58.9,29.86,ESE,107,0.0,0.0,94,0.00,,,0.11,WeatherCatV1.15B25,2013-06-06 11:37:00,
2013-06-06 07:42:00,60.6,58.9,29.86,ESE,108,0.0,0.0,94,0.00,,,0.11,WeatherCatV1.15B25,2013-06-06 11:42:00,
2013-06-06 07:47:00,60.7,59.0,29.86,SSE,152,0.0,1.0,94,0.14,,,0.13,WeatherCatV1.15B25,2013-06-06 11:47:00,
2013-06-06 07:52:00,60.8,59.1,29.86,SSW,204,0.0,0.0,94,0.40,,,0.16,WeatherCatV1.15B25,2013-06-06 11:52:00,
2013-06-06 07:57:00,60.8,59.1,29.86,SSW,204,0.0,0.0,94,0.33,,,0.19,WeatherCatV1.15B25,2013-06-06 11:57:00,
2013-06-06 08:02:00,60.8,59.1,29.86,SSE,159,0.0,0.0,94,0.55,,,0.23,WeatherCatV1.15B25,2013-06-06 12:02:00,
2013-06-06 08:07:00,60.9,59.2,29.86,SSE,160,1.0,1.0,94,0.77,,,0.27,WeatherCatV1.15B25,2013-06-06 12:07:00,
2013-06-06 08:12:00,60.9,59.2,29.85,SSE,159,0.0,0.0,94,0.60,,,0.34,WeatherCatV1.15B25,2013-06-06 12:12:00,
2013-06-06 08:17:00,60.9,59.2,29.85,SSE,152,0.0,1.0,94,0.90,,,0.41,WeatherCatV1.15B25,2013-06-06 12:17:00,
2013-06-06 08:22:00,60.9,59.2,29.85,SE,145,0.0,1.0,94,0.46,,,0.46,WeatherCatV1.15B25,2013-06-06 12:22:00,
2013-06-06 08:27:00,60.9,59.2,29.85,SSE,156,0.0,1.0,94,0.13,,,0.47,WeatherCatV1.15B25,2013-06-06 12:27:00,
2013-06-06 08:32:00,61.0,59.3,29.85,SSE,157,0.0,1.0,94,0.10,,,0.48,WeatherCatV1.15B25,2013-06-06 12:32:00,
2013-06-06 08:37:00,61.0,59.3,29.85,SSE,156,0.0,0.0,94,0.13,,,0.49,WeatherCatV1.15B25,2013-06-06 12:37:00,
2013-06-06 08:42:00,61.1,59.4,29.84,SSE,157,0.0,0.0,94,0.11,,,0.49,WeatherCatV1.15B25,2013-06-06 12:42:00,
2013-06-06 08:47:00,61.2,59.5,29.84,SSE,156,0.0,1.0,94,0.06,,,0.49,WeatherCatV1.15B25,2013-06-06 12:47:00,
2013-06-06 08:52:00,61.2,59.5,29.84,SSE,158,1.0,1.0,94,0.04,,,0.49,WeatherCatV1.15B25,2013-06-06 12:52:00,
2013-06-06 08:57:00,61.3,59.6,29.84,SE,141,1.0,1.0,94,0.00,,,0.49,WeatherCatV1.15B25,2013-06-06 12:57:00,
2013-06-06 09:02:00,61.4,59.7,29.84,SSE,155,2.0,2.0,94,0.00,,,0.50,WeatherCatV1.15B25,2013-06-06 13:02:00,
2013-06-06 09:07:00,61.4,59.7,29.84,SSE,163,1.0,2.0,94,0.09,,,0.51,WeatherCatV1.15B25,2013-06-06 13:07:00,
2013-06-06 09:12:00,61.5,59.8,29.83,SSE,157,1.0,2.0,94,0.14,,,0.52,WeatherCatV1.15B25,2013-06-06 13:12:00,
2013-06-06 09:17:00,61.7,60.0,29.83,ESE,109,1.0,2.0,94,0.12,,,0.53,WeatherCatV1.15B25,2013-06-06 13:17:00,
2013-06-06 09:22:00,61.9,60.4,29.83,SSE,158,1.0,2.0,95,0.07,,,0.54,WeatherCatV1.15B25,2013-06-06 13:22:00,
2013-06-06 09:27:00,62.1,60.6,29.83,East,81,1.0,2.0,95,0.07,,,0.54,WeatherCatV1.15B25,2013-06-06 13:27:00,
2013-06-06 09:32:00,62.2,60.7,29.83,SSE,160,2.0,3.0,95,0.08,,,0.55,WeatherCatV1.15B25,2013-06-06 13:32:00,
2013-06-06 09:37:00,62.3,60.8,29.83,SSE,153,1.0,4.0,95,0.07,,,0.55,WeatherCatV1.15B25,2013-06-06 13:37:00,
2013-06-06 09:42:00,62.3,60.5,29.82,SSE,157,0.0,2.0,94,0.07,,,0.56,WeatherCatV1.15B25,2013-06-06 13:42:00,
2013-06-06 09:47:00,62.4,60.9,29.82,South,170,1.0,2.0,95,0.47,,,0.59,WeatherCatV1.15B25,2013-06-06 13:47:00,
2013-06-06 09:52:00,62.5,61.0,29.82,SSE,155,1.0,2.0,95,0.45,,,0.63,WeatherCatV1.15B25,2013-06-06 13:52:00,
2013-06-06 09:57:00,62.5,60.7,29.82,SE,132,0.0,1.0,94,0.79,,,0.68,WeatherCatV1.15B25,2013-06-06 13:57:00,
2013-06-06 10:02:00,62.4,60.6,29.82,SSE,150,1.0,2.0,94,0.49,,,0.74,WeatherCatV1.15B25,2013-06-06 14:02:00,
2013-06-06 10:07:00,62.3,60.5,29.82,East,94,2.0,2.0,94,0.38,,,0.78,WeatherCatV1.15B25,2013-06-06 14:07:00,
2013-06-06 10:12:00,62.2,60.4,29.81,ENE,63,1.0,2.0,94,0.29,,,0.81,WeatherCatV1.15B25,2013-06-06 14:12:00,
2013-06-06 10:17:00,62.0,60.2,29.81,ENE,78,2.0,2.0,94,0.19,,,0.83,WeatherCatV1.15B25,2013-06-06 14:17:00,
2013-06-06 10:22:00,61.9,60.2,29.81,ESE,120,0.0,1.0,94,0.33,,,0.85,WeatherCatV1.15B25,2013-06-06 14:22:00,
2013-06-06 10:27:00,61.9,60.2,29.81,East,84,1.0,2.0,94,0.36,,,0.88,WeatherCatV1.15B25,2013-06-06 14:27:00,
2013-06-06 10:32:00,61.8,60.1,29.82,East,94,0.0,1.0,94,0.46,,,0.92,WeatherCatV1.15B25,2013-06-06 14:32:00,
2013-06-06 10:37:00,61.8,60.1,29.81,ESE,103,0.0,1.0,94,0.26,,,0.94,WeatherCatV1.15B25,2013-06-06 14:37:00,
2013-06-06 10:42:00,61.7,60.0,29.81,ESE,116,0.0,0.0,94,0.17,,,0.96,WeatherCatV1.15B25,2013-06-06 14:42:00,
2013-06-06 10:47:00,61.6,59.9,29.81,ENE,76,1.0,2.0,94,0.24,,,0.98,WeatherCatV1.15B25,2013-06-06 14:47:00,
2013-06-06 10:52:00,61.6,59.9,29.81,ENE,77,0.0,0.0,94,0.22,,,0.99,WeatherCatV1.15B25,2013-06-06 14:52:00,
2013-06-06 10:57:00,61.6,60.2,29.81,ENE,77,0.0,0.0,95,0.13,,,1.00,WeatherCatV1.15B25,2013-06-06 14:57:00,
2013-06-06 11:02:00,61.6,60.2,29.81,ENE,65,2.0,4.0,95,0.13,,,1.01,WeatherCatV1.15B25,2013-06-06 15:02:00,
2013-06-06 11:07:00,61.7,60.2,29.80,SE,130,1.0,2.0,95,0.08,,,1.02,WeatherCatV1.15B25,2013-06-06 15:07:00,
2013-06-06 11:12:00,61.8,60.3,29.81,SSE,165,2.0,2.0,95,0.10,,,1.03,WeatherCatV1.15B25,2013-06-06 15:12:00,
2013-06-06 11:17:00,61.8,60.3,29.80,SSE,156,0.0,1.0,95,0.17,,,1.04,WeatherCatV1.15B25,2013-06-06 15:17:00,
2013-06-06 11:22:00,61.9,60.4,29.81,SSE,157,0.0,2.0,95,0.13,,,1.05,WeatherCatV1.15B25,2013-06-06 15:22:00,
2013-06-06 11:27:00,61.9,60.4,29.80,SSE,159,1.0,1.0,95,0.07,,,1.05,WeatherCatV1.15B25,2013-06-06 15:27:00,
2013-06-06 11:32:00,62.0,60.5,29.80,SSE,151,1.0,1.0,95,0.41,,,1.07,WeatherCatV1.15B25,2013-06-06 15:32:00,
2013-06-06 11:37:00,62.0,60.5,29.80,SE,145,0.0,2.0,95,0.13,,,1.09,WeatherCatV1.15B25,2013-06-06 15:37:00,
2013-06-06 11:42:00,62.0,60.2,29.81,SSE,163,2.0,3.0,94,0.38,,,1.11,WeatherCatV1.15B25,2013-06-06 15:42:00,
2013-06-06 11:47:00,62.1,60.3,29.80,SSE,148,2.0,3.0,94,0.09,,,1.11,WeatherCatV1.15B25,2013-06-06 15:47:00,
2013-06-06 11:52:00,62.0,60.2,29.81,SSE,151,0.0,2.0,94,0.09,,,1.12,WeatherCatV1.15B25,2013-06-06 15:52:00,
2013-06-06 11:57:00,62.1,60.3,29.81,SSE,153,0.0,0.0,94,0.06,,,1.12,WeatherCatV1.15B25,2013-06-06 15:57:00,
2013-06-06 12:02:00,62.0,60.2,29.80,ENE,78,0.0,2.0,94,0.05,,,1.13,WeatherCatV1.15B25,2013-06-06 16:02:00,
2013-06-06 12:07:00,62.1,60.3,29.80,SE,130,0.0,1.0,94,0.05,,,1.13,WeatherCatV1.15B25,2013-06-06 16:07:00,
2013-06-06 12:12:00,62.1,60.3,29.80,SE,130,0.0,1.0,94,0.05,,,1.13,WeatherCatV1.15B25,2013-06-06 16:12:00,
2013-06-06 12:17:00,62.2,60.7,29.80,SE,129,0.0,0.0,95,0.00,,,1.13,WeatherCatV1.15B25,2013-06-06 16:17:00,
2013-06-06 12:22:00,62.2,60.4,29.80,SE,131,0.0,1.0,94,0.00,,,1.14,WeatherCatV1.15B25,2013-06-06 16:22:00,
2013-06-06 12:27:00,62.2,60.4,29.80,ESE,113,0.0,1.0,94,0.13,,,1.15,WeatherCatV1.15B25,2013-06-06 16:27:00,
2013-06-06 12:32:00,62.2,60.4,29.80,SSE,155,0.0,0.0,94,0.07,,,1.15,WeatherCatV1.15B25,2013-06-06 16:32:00,
2013-06-06 12:37:00,62.3,60.8,29.80,SSE,157,0.0,0.0,95,0.04,,,1.15,WeatherCatV1.15B25,2013-06-06 16:37:00,
2013-06-06 12:42:00,62.4,60.9,29.80,SE,143,0.0,2.0,95,0.04,,,1.16,WeatherCatV1.15B25,2013-06-06 16:42:00,
2013-06-06 12:47:00,62.4,60.9,29.79,SSE,155,0.0,1.0,95,0.08,,,1.17,WeatherCatV1.15B25,2013-06-06 16:47:00,
2013-06-06 12:52:00,62.5,61.0,29.79,SSE,160,2.0,2.0,95,0.08,,,1.17,WeatherCatV1.15B25,2013-06-06 16:52:00,
2013-06-06 12:57:00,62.5,61.0,29.79,SSE,160,0.0,0.0,95,0.05,,,1.17,WeatherCatV1.15B25,2013-06-06 16:57:00,
2013-06-06 13:02:00,62.6,61.1,29.79,SE,134,0.0,1.0,95,0.04,,,1.18,WeatherCatV1.15B25,2013-06-06 17:02:00,
2013-06-06 13:07:00,62.6,61.1,29.79,SSE,156,0.0,0.0,95,0.04,,,1.18,WeatherCatV1.15B25,2013-06-06 17:07:00,
2013-06-06 13:12:00,62.7,61.2,29.79,SSE,155,0.0,0.0,95,0.06,,,1.19,WeatherCatV1.15B25,2013-06-06 17:12:00,
2013-06-06 13:17:00,62.8,61.3,29.78,SSE,162,0.0,0.0,95,0.09,,,1.20,WeatherCatV1.15B25,2013-06-06 17:17:00,
2013-06-06 13:22:00,62.8,61.3,29.78,SSE,156,0.0,1.0,95,0.09,,,1.20,WeatherCatV1.15B25,2013-06-06 17:22:00,
2013-06-06 13:27:00,62.9,61.4,29.78,SE,124,0.0,1.0,95,0.06,,,1.21,WeatherCatV1.15B25,2013-06-06 17:27:00,
2013-06-06 13:32:00,63.0,61.5,29.78,SSE,149,0.0,2.0,95,0.21,,,1.23,WeatherCatV1.15B25,2013-06-06 17:32:00,
2013-06-06 13:37:00,63.1,61.6,29.78,SSE,159,1.0,2.0,95,0.11,,,1.24,WeatherCatV1.15B25,2013-06-06 17:37:00,
2013-06-06 13:42:00,63.1,61.6,29.77,SE,133,1.0,1.0,95,0.11,,,1.24,WeatherCatV1.15B25,2013-06-06 17:42:00,
2013-06-06 13:47:00,63.0,61.2,29.77,SSE,158,1.0,3.0,94,0.17,,,1.26,WeatherCatV1.15B25,2013-06-06 17:47:00,
2013-06-06 13:52:00,63.0,61.2,29.78,SSE,153,2.0,2.0,94,0.17,,,1.28,WeatherCatV1.15B25,2013-06-06 17:52:00,
2013-06-06 13:57:00,63.0,61.2,29.77,SSE,152,2.0,3.0,94,0.16,,,1.29,WeatherCatV1.15B25,2013-06-06 17:57:00,
2013-06-06 14:02:00,63.1,61.6,29.77,SSE,155,3.0,4.0,95,0.19,,,1.31,WeatherCatV1.15B25,2013-06-06 18:02:00,
2013-06-06 14:07:00,63.2,61.4,29.77,SSE,159,3.0,3.0,94,0.10,,,1.31,WeatherCatV1.15B25,2013-06-06 18:07:00,
2013-06-06 14:12:00,63.2,61.4,29.77,SSE,155,1.0,2.0,94,0.06,,,1.31,WeatherCatV1.15B25,2013-06-06 18:12:00,
2013-06-06 14:17:00,63.1,61.3,29.77,SSE,152,1.0,3.0,94,0.04,,,1.31,WeatherCatV1.15B25,2013-06-06 18:17:00,
2013-06-06 14:22:00,63.2,61.4,29.77,SSE,164,1.0,2.0,94,0.00,,,1.31,WeatherCatV1.15B25,2013-06-06 18:22:00,
2013-06-06 14:27:00,63.3,61.5,29.77,SSE,160,0.0,1.0,94,0.00,,,1.31,WeatherCatV1.15B25,2013-06-06 18:27:00,
2013-06-06 14:32:00,63.4,61.6,29.77,SSE,159,1.0,2.0,94,0.00,,,1.31,WeatherCatV1.15B25,2013-06-06 18:32:00,
2013-06-06 14:37:00,63.4,61.6,29.76,SSE,159,1.0,2.0,94,0.00,,,1.31,WeatherCatV1.15B25,2013-06-06 18:37:00,
2013-06-06 14:42:00,63.4,61.6,29.76,SSE,158,2.0,2.0,94,0.00,,,1.31,WeatherCatV1.15B25,2013-06-06 18:42:00,
2013-06-06 14:47:00,63.5,61.7,29.76,SSE,160,0.0,0.0,94,0.00,,,1.31,WeatherCatV1.15B25,2013-06-06 18:47:00,
2013-06-06 14:52:00,63.6,61.8,29.76,SSE,165,0.0,0.0,94,0.00,,,1.32,WeatherCatV1.15B25,2013-06-06 18:52:00,
2013-06-06 14:57:00,63.6,61.8,29.76,SSE,165,0.0,0.0,94,0.00,,,1.32,WeatherCatV1.15B25,2013-06-06 18:57:00,
2013-06-06 15:02:00,63.5,61.7,29.76,SW,229,0.0,0.0,94,0.05,,,1.33,WeatherCatV1.15B25,2013-06-06 19:02:00,
2013-06-06 15:07:00,63.6,61.8,29.76,SW,218,0.0,0.0,94,0.05,,,1.33,WeatherCatV1.15B25,2013-06-06 19:07:00,
2013-06-06 15:12:00,63.6,61.8,29.76,West,270,0.0,1.0,94,0.05,,,1.33,WeatherCatV1.15B25,2013-06-06 19:12:00,
2013-06-06 15:17:00,63.6,61.8,29.76,West,267,0.0,0.0,94,0.05,,,1.34,WeatherCatV1.15B25,2013-06-06 19:17:00,
2013-06-06 15:22:00,63.4,61.6,29.76,West,269,0.0,1.0,94,0.05,,,1.34,WeatherCatV1.15B25,2013-06-06 19:22:00,
2013-06-06 15:27:00,63.2,61.4,29.75,West,278,0.0,1.0,94,0.05,,,1.35,WeatherCatV1.15B25,2013-06-06 19:27:00,
2013-06-06 15:32:00,63.0,61.2,29.75,NW,318,1.0,2.0,94,0.12,,,1.36,WeatherCatV1.15B25,2013-06-06 19:32:00,
2013-06-06 15:37:00,62.8,61.0,29.76,NW,320,0.0,1.0,94,0.16,,,1.37,WeatherCatV1.15B25,2013-06-06 19:37:00,
2013-06-06 15:42:00,62.6,60.8,29.76,NNW,335,1.0,2.0,94,0.25,,,1.39,WeatherCatV1.15B25,2013-06-06 19:42:00,
2013-06-06 15:46:00,62.3,60.5,29.76,NNW,335,1.0,4.0,94,0.73,,,1.44,WeatherCatV1.15B25,2013-06-06 19:46:00,
2013-06-06 15:51:00,61.8,60.1,29.76,NNW,332,1.0,3.0,94,0.96,,,1.53,WeatherCatV1.15B25,2013-06-06 19:51:00,
2013-06-06 15:57:00,61.4,59.7,29.76,NNW,338,2.0,4.0,94,2.17,,,1.63,WeatherCatV1.15B25,2013-06-06 19:57:00,
2013-06-06 16:02:00,61.2,59.5,29.77,NW,307,0.0,1.0,94,1.06,,,1.75,WeatherCatV1.15B25,2013-06-06 20:02:00,
2013-06-06 16:07:00,61.0,59.3,29.76,NNW,329,1.0,2.0,94,1.02,,,1.89,WeatherCatV1.15B25,2013-06-06 20:07:00,
2013-06-06 16:12:00,60.8,59.1,29.77,NW,305,0.0,2.0,94,0.80,,,1.98,WeatherCatV1.15B25,2013-06-06 20:12:00,
2013-06-06 16:17:00,60.8,59.1,29.77,NNW,335,1.0,4.0,94,0.90,,,2.06,WeatherCatV1.15B25,2013-06-06 20:17:00,
2013-06-06 16:22:00,60.7,59.0,29.77,NNW,335,1.0,5.0,94,0.51,,,2.12,WeatherCatV1.15B25,2013-06-06 20:22:00,
2013-06-06 16:27:00,60.7,59.0,29.76,NNW,335,1.0,3.0,94,0.91,,,2.18,WeatherCatV1.15B25,2013-06-06 20:27:00,
2013-06-06 16:32:00,60.7,59.3,29.77,NNW,347,0.0,4.0,95,0.24,,,2.22,WeatherCatV1.15B25,2013-06-06 20:32:00,
2013-06-06 16:37:00,60.7,59.3,29.76,WNW,287,1.0,2.0,95,0.34,,,2.24,WeatherCatV1.15B25,2013-06-06 20:37:00,
2013-06-06 16:42:00,60.7,59.3,29.76,NNW,342,0.0,1.0,95,0.15,,,2.25,WeatherCatV1.15B25,2013-06-06 20:42:00,
2013-06-06 16:47:00,60.8,59.4,29.76,ENE,75,0.0,0.0,95,0.12,,,2.26,WeatherCatV1.15B25,2013-06-06 20:47:00,
2013-06-06 16:52:00,60.9,59.5,29.76,NNE,26,0.0,2.0,95,0.12,,,2.27,WeatherCatV1.15B25,2013-06-06 20:52:00,
2013-06-06 16:57:00,60.9,59.5,29.75,East,81,2.0,2.0,95,0.13,,,2.28,WeatherCatV1.15B25,2013-06-06 20:57:00,
2013-06-06 17:02:00,60.9,59.5,29.75,ENE,73,0.0,1.0,95,0.11,,,2.29,WeatherCatV1.15B25,2013-06-06 21:02:00,
2013-06-06 17:07:00,61.0,59.6,29.76,East,88,0.0,0.0,95,0.09,,,2.30,WeatherCatV1.15B25,2013-06-06 21:07:00,
2013-06-06 17:12:00,61.1,59.7,29.76,NE,43,0.0,0.0,95,0.08,,,2.30,WeatherCatV1.15B25,2013-06-06 21:12:00,
2013-06-06 17:17:00,61.1,59.7,29.76,ENE,78,0.0,2.0,95,0.06,,,2.31,WeatherCatV1.15B25,2013-06-06 21:17:00,
2013-06-06 17:22:00,61.1,59.7,29.76,East,79,2.0,2.0,95,0.09,,,2.32,WeatherCatV1.15B25,2013-06-06 21:22:00,
2013-06-06 17:27:00,61.1,59.7,29.76,East,79,0.0,0.0,95,0.09,,,2.32,WeatherCatV1.15B25,2013-06-06 21:27:00,
2013-06-06 17:32:00,61.1,59.7,29.76,East,79,0.0,1.0,95,0.08,,,2.33,WeatherCatV1.15B25,2013-06-06 21:32:00,
2013-06-06 17:37:00,61.2,59.8,29.76,East,79,0.0,0.0,95,0.12,,,2.34,WeatherCatV1.15B25,2013-06-06 21:37:00,
2013-06-06 17:42:00,61.3,59.9,29.75,East,79,0.0,0.0,95,0.07,,,2.35,WeatherCatV1.15B25,2013-06-06 21:42:00,
2013-06-06 17:47:00,61.4,60.0,29.75,East,79,0.0,0.0,95,0.07,,,2.35,WeatherCatV1.15B25,2013-06-06 21:47:00,
2013-06-06 17:52:00,61.5,60.1,29.75,East,79,0.0,0.0,95,0.06,,,2.35,WeatherCatV1.15B25,2013-06-06 21:52:00,
2013-06-06 17:57:00,61.6,60.2,29.75,East,79,0.0,0.0,95,0.04,,,2.35,WeatherCatV1.15B25,2013-06-06 21:57:00,
2013-06-06 18:02:00,61.6,60.2,29.75,East,79,0.0,0.0,95,0.04,,,2.36,WeatherCatV1.15B25,2013-06-06 22:02:00,
2013-06-06 18:07:00,61.6,60.2,29.75,East,81,0.0,0.0,95,0.04,,,2.36,WeatherCatV1.15B25,2013-06-06 22:07:00,
2013-06-06 18:12:00,61.6,60.2,29.75,East,81,0.0,0.0,95,0.04,,,2.36,WeatherCatV1.15B25,2013-06-06 22:12:00,
2013-06-06 18:17:00,61.5,60.1,29.75,East,79,0.0,1.0,95,0.00,,,2.36,WeatherCatV1.15B25,2013-06-06 22:17:00,
2013-06-06 18:22:00,61.6,60.2,29.75,NNW,339,0.0,1.0,95,0.00,,,2.36,WeatherCatV1.15B25,2013-06-06 22:22:00,
2013-06-06 18:27:00,61.7,60.2,29.76,NNW,338,0.0,1.0,95,0.00,,,2.36,WeatherCatV1.15B25,2013-06-06 22:27:00,
2013-06-06 18:32:00,61.7,60.2,29.76,NNW,339,0.0,1.0,95,0.00,,,2.36,WeatherCatV1.15B25,2013-06-06 22:32:00,
2013-06-06 18:37:00,61.7,60.2,29.76,NNW,338,0.0,0.0,95,0.00,,,2.36,WeatherCatV1.15B25,2013-06-06 22:37:00,
2013-06-06 18:42:00,61.7,60.2,29.75,NNW,338,0.0,0.0,95,0.00,,,2.36,WeatherCatV1.15B25,2013-06-06 22:42:00,
2013-06-06 18:47:00,61.8,60.3,29.76,NNW,339,0.0,0.0,95,0.00,,,2.36,WeatherCatV1.15B25,2013-06-06 22:47:00,
2013-06-06 18:52:00,61.8,60.3,29.75,NNW,338,0.0,1.0,95,0.00,,,2.36,WeatherCatV1.15B25,2013-06-06 22:52:00,
2013-06-06 18:57:00,61.9,60.4,29.75,NNW,338,0.0,0.0,95,0.00,,,2.36,WeatherCatV1.15B25,2013-06-06 22:57:00,
2013-06-06 19:02:00,61.9,60.4,29.75,NNW,340,0.0,0.0,95,0.00,,,2.36,WeatherCatV1.15B25,2013-06-06 23:02:00,
2013-06-06 19:07:00,61.9,60.4,29.75,East,82,1.0,1.0,95,0.00,,,2.36,WeatherCatV1.15B25,2013-06-06 23:07:00,
2013-06-06 19:12:00,61.8,60.3,29.75,East,86,1.0,2.0,95,0.00,,,2.36,WeatherCatV1.15B25,2013-06-06 23:12:00,
2013-06-06 19:17:00,61.6,60.2,29.75,East,83,0.0,2.0,95,0.00,,,2.36,WeatherCatV1.15B25,2013-06-06 23:17:00,
2013-06-06 19:22:00,61.6,60.2,29.75,East,86,2.0,3.0,95,0.00,,,2.36,WeatherCatV1.15B25,2013-06-06 23:22:00,
2013-06-06 19:27:00,61.5,60.1,29.75,ESE,115,0.0,1.0,95,0.00,,,2.36,WeatherCatV1.15B25,2013-06-06 23:27:00,
2013-06-06 19:32:00,61.4,60.0,29.75,East,88,0.0,0.0,95,0.00,,,2.36,WeatherCatV1.15B25,2013-06-06 23:32:00,
2013-06-06 19:37:00,61.4,60.0,29.76,East,88,0.0,1.0,95,0.00,,,2.37,WeatherCatV1.15B25,2013-06-06 23:37:00,
2013-06-06 19:42:00,61.4,60.0,29.75,ENE,76,0.0,2.0,95,0.00,,,2.37,WeatherCatV1.15B25,2013-06-06 23:42:00,
2013-06-06 19:47:00,61.4,60.0,29.75,ENE,77,0.0,0.0,95,0.00,,,2.37,WeatherCatV1.15B25,2013-06-06 23:47:00,
2013-06-06 19:52:00,61.3,59.9,29.75,ENE,76,0.0,1.0,95,0.00,,,2.37,WeatherCatV1.15B25,2013-06-06 23:52:00,
2013-06-06 19:57:00,61.3,59.9,29.75,East,79,2.0,2.0,95,0.00,,,2.37,WeatherCatV1.15B25,2013-06-06 23:57:00,
2013-06-06 20:02:00,61.2,59.8,29.76,East,79,0.0,1.0,95,0.00,,,2.37,WeatherCatV1.15B25,2013-06-07 00:02:00,
2013-06-06 20:07:00,61.2,59.8,29.76,East,79,0.0,0.0,95,0.00,,,2.37,WeatherCatV1.15B25,2013-06-07 00:07:00,
2013-06-06 20:12:00,61.2,59.8,29.76,East,79,0.0,0.0,95,0.00,,,2.37,WeatherCatV1.15B25,2013-06-07 00:12:00,
2013-06-06 20:17:00,61.2,59.8,29.76,East,79,0.0,0.0,95,0.00,,,2.37,WeatherCatV1.15B25,2013-06-07 00:17:00,
2013-06-06 20:22:00,61.2,59.8,29.76,East,79,0.0,1.0,95,0.00,,,2.37,WeatherCatV1.15B25,2013-06-07 00:22:00,
2013-06-06 20:27:00,61.1,59.7,29.76,East,79,0.0,0.0,95,0.00,,,2.37,WeatherCatV1.15B25,2013-06-07 00:27:00,
2013-06-06 20:32:00,61.1,59.7,29.76,East,79,1.0,1.0,95,0.00,,,2.37,WeatherCatV1.15B25,2013-06-07 00:32:00,
2013-06-06 20:37:00,61.1,59.7,29.76,East,79,1.0,1.0,95,0.00,,,2.37,WeatherCatV1.15B25,2013-06-07 00:37:00,
2013-06-06 20:42:00,61.1,59.7,29.76,East,79,0.0,0.0,95,0.00,,,2.37,WeatherCatV1.15B25,2013-06-07 00:42:00,
2013-06-06 20:47:00,61.1,59.7,29.77,East,79,0.0,0.0,95,0.00,,,2.37,WeatherCatV1.15B25,2013-06-07 00:47:00,
2013-06-06 20:52:00,61.1,59.7,29.77,East,79,0.0,0.0,95,0.00,,,2.37,WeatherCatV1.15B25,2013-06-07 00:52:00,
2013-06-06 20:57:00,61.1,59.7,29.77,East,79,0.0,0.0,95,0.00,,,2.37,WeatherCatV1.15B25,2013-06-07 00:57:00,
2013-06-06 21:02:00,61.1,59.7,29.76,East,79,0.0,0.0,95,0.00,,,2.37,WeatherCatV1.15B25,2013-06-07 01:02:00,
2013-06-06 21:07:00,61.1,59.7,29.77,East,79,0.0,0.0,95,0.00,,,2.37,WeatherCatV1.15B25,2013-06-07 01:07:00,
2013-06-06 21:12:00,61.1,59.7,29.77,East,79,0.0,0.0,95,0.00,,,2.37,WeatherCatV1.15B25,2013-06-07 01:12:00,
2013-06-06 21:17:00,61.1,59.7,29.77,East,79,0.0,0.0,95,0.00,,,2.37,WeatherCatV1.15B25,2013-06-07 01:17:00,
2013-06-06 21:22:00,61.1,59.7,29.77,East,79,0.0,0.0,95,0.00,,,2.37,WeatherCatV1.15B25,2013-06-07 01:22:00,
2013-06-06 21:27:00,61.1,59.7,29.77,East,79,0.0,0.0,95,0.00,,,2.37,WeatherCatV1.15B25,2013-06-07 01:27:00,
2013-06-06 21:32:00,61.1,59.7,29.77,East,79,0.0,0.0,95,0.00,,,2.37,WeatherCatV1.15B25,2013-06-07 01:32:00,
2013-06-06 21:37:00,61.1,59.7,29.77,WNW,283,1.0,3.0,95,0.00,,,2.37,WeatherCatV1.15B25,2013-06-07 01:37:00,
2013-06-06 21:42:00,60.8,59.4,29.77,NNW,335,1.0,1.0,95,0.00,,,2.37,WeatherCatV1.15B25,2013-06-07 01:42:00,
2013-06-06 21:47:00,60.6,59.2,29.77,NW,318,0.0,1.0,95,0.00,,,2.37,WeatherCatV1.15B25,2013-06-07 01:47:00,
2013-06-06 21:52:00,60.5,59.1,29.77,NNW,345,1.0,2.0,95,0.00,,,2.37,WeatherCatV1.15B25,2013-06-07 01:52:00,
2013-06-06 21:57:00,60.2,58.8,29.78,NW,325,0.0,3.0,95,0.00,,,2.37,WeatherCatV1.15B25,2013-06-07 01:57:00,
2013-06-06 22:02:00,59.9,58.2,29.78,WSW,252,0.0,1.0,94,0.00,,,2.37,WeatherCatV1.15B25,2013-06-07 02:02:00,
2013-06-06 22:07:00,59.8,58.4,29.78,WSW,252,0.0,0.0,95,0.00,,,2.37,WeatherCatV1.15B25,2013-06-07 02:07:00,
2013-06-06 22:12:00,59.7,58.3,29.78,West,267,0.0,0.0,95,0.00,,,2.37,WeatherCatV1.15B25,2013-06-07 02:12:00,
2013-06-06 22:17:00,59.6,58.2,29.79,NNW,338,0.0,2.0,95,0.00,,,2.37,WeatherCatV1.15B25,2013-06-07 02:17:00,
2013-06-06 22:22:00,59.4,58.0,29.79,NNW,338,0.0,1.0,95,0.00,,,2.37,WeatherCatV1.15B25,2013-06-07 02:22:00,
2013-06-06 22:27:00,59.2,57.8,29.79,WNW,301,0.0,1.0,95,0.00,,,2.37,WeatherCatV1.15B25,2013-06-07 02:27:00,
2013-06-06 22:32:00,59.0,57.6,29.80,WSW,250,0.0,1.0,95,0.00,,,2.37,WeatherCatV1.15B25,2013-06-07 02:32:00,
2013-06-06 22:37:00,58.4,56.7,29.80,NW,324,1.0,4.0,94,0.00,,,2.37,WeatherCatV1.15B25,2013-06-07 02:37:00,
2013-06-06 22:42:00,57.8,56.1,29.80,NNW,342,3.0,5.0,94,0.00,,,2.37,WeatherCatV1.15B25,2013-06-07 02:42:00,
2013-06-06 22:47:00,57.2,55.5,29.80,NW,316,1.0,5.0,94,0.00,,,2.37,WeatherCatV1.15B25,2013-06-07 02:47:00,
2013-06-06 22:52:00,57.0,55.3,29.80,NNW,328,1.0,2.0,94,0.00,,,2.37,WeatherCatV1.15B25,2013-06-07 02:52:00,
2013-06-06 22:57:00,56.8,55.4,29.80,WNW,284,1.0,1.0,95,0.00,,,2.37,WeatherCatV1.15B25,2013-06-07 02:57:00,
2013-06-06 23:02:00,56.6,55.2,29.80,NNW,347,3.0,4.0,95,0.00,,,2.37,WeatherCatV1.15B25,2013-06-07 03:02:00,
2013-06-06 23:07:00,56.3,54.6,29.80,NNW,329,0.0,2.0,94,0.00,,,2.37,WeatherCatV1.15B25,2013-06-07 03:07:00,
2013-06-06 23:12:00,56.1,54.7,29.80,NNW,327,0.0,1.0,95,0.00,,,2.37,WeatherCatV1.15B25,2013-06-07 03:12:00,
2013-06-06 23:17:00,56.0,54.6,29.81,West,271,0.0,1.0,95,0.00,,,2.37,WeatherCatV1.15B25,2013-06-07 03:17:00,
2013-06-06 23:22:00,55.9,54.5,29.81,West,270,0.0,1.0,95,0.00,,,2.37,WeatherCatV1.15B25,2013-06-07 03:22:00,
2013-06-06 23:27:00,55.8,54.4,29.81,North,354,2.0,2.0,95,0.00,,,2.37,WeatherCatV1.15B25,2013-06-07 03:27:00,
2013-06-06 23:32:00,55.7,54.3,29.81,NNW,337,1.0,2.0,95,0.00,,,2.37,WeatherCatV1.15B25,2013-06-07 03:32:00,
2013-06-06 23:37:00,55.6,54.2,29.81,NNE,15,0.0,1.0,95,0.00,,,2.37,WeatherCatV1.15B25,2013-06-07 03:37:00,
2013-06-06 23:42:00,55.5,54.1,29.81,NNW,340,1.0,1.0,95,0.00,,,2.37,WeatherCatV1.15B25,2013-06-07 03:42:00,
2013-06-06 23:47:00,55.4,54.0,29.80,WNW,285,0.0,3.0,95,0.00,,,2.37,WeatherCatV1.15B25,2013-06-07 03:47:00,
2013-06-06 23:52:00,55.2,53.8,29.80,NE,39,0.0,2.0,95,0.00,,,2.37,WeatherCatV1.15B25,2013-06-07 03:52:00,
2013-06-06 23:57:00,55.0,53.6,29.80,West,271,0.0,1.0,95,0.00,,,2.37,WeatherCatV1.15B25,2013-06-07 03:57:00,